EWG2965 LDSP-EDDS

Flight info

Callsign EWG2965
Flight time 1h 17m
Altitude 36000
Route ZDA DCT RAVNA DCT ULPIN DCT GIRDA DCT INGID DCT SBG DCT TITIG L173 MAH/N0401F240 L173 DODIL T127 TEKSI TEKSI1W
Aircraft A320/M-SDE3FGHIRWY/LB1

Departure

Time 2026-05-07 18:54
Airport Split Saint Jerome Airport (LDSP)

Arrival

Time 2026-05-07 20:12
Airport Stuttgart Airport (EDDS)
Time Latitude Longitude Altitude Speed Heading
2026-05-07 18:34 43.53795 16.29997 60 ft 0 kts 114°
2026-05-07 18:49 43.53796 16.29998 68 ft 1 kts 108°
2026-05-07 18:49 43.53804 16.30009 65 ft 1 kts 351°
2026-05-07 18:50 43.53804 16.29999 68 ft 3 kts 282°
2026-05-07 18:50 43.53807 16.29975 59 ft 2 kts 278°
2026-05-07 18:50 43.53815 16.29900 64 ft 11 kts 258°
2026-05-07 18:50 43.53775 16.29823 65 ft 9 kts 232°
2026-05-07 18:51 43.53739 16.29758 65 ft 8 kts 232°
2026-05-07 18:51 43.53708 16.29703 64 ft 7 kts 232°
2026-05-07 18:51 43.53686 16.29654 68 ft 5 kts 250°
2026-05-07 18:51 43.53695 16.29549 71 ft 14 kts 279°
2026-05-07 18:52 43.53695 16.29485 82 ft 10 kts 264°
2026-05-07 18:52 43.53625 16.29312 83 ft 29 kts 232°
2026-05-07 18:52 43.53504 16.29092 87 ft 29 kts 232°
2026-05-07 18:52 43.53381 16.28872 87 ft 29 kts 232°
2026-05-07 18:53 43.53273 16.28679 87 ft 18 kts 232°
2026-05-07 18:53 43.53211 16.28617 89 ft 10 kts 209°
2026-05-07 18:53 43.53205 16.28566 85 ft 3 kts
2026-05-07 18:53 43.53238 16.28616 87 ft 24 kts 53°
2026-05-07 18:54 43.53502 16.29088 89 ft 97 kts 52°
2026-05-07 18:54 43.54036 16.30032 90 ft 150 kts 49°
2026-05-07 18:54 43.54660 16.31203 649 ft 153 kts 54°
2026-05-07 18:54 43.55297 16.32369 1355 ft 153 kts 58°
2026-05-07 18:55 43.55674 16.33775 1776 ft 166 kts 89°
2026-05-07 18:55 43.55427 16.35358 2229 ft 175 kts 120°
2026-05-07 18:55 43.54549 16.36541 2794 ft 182 kts 152°
2026-05-07 18:55 43.53308 16.36922 3454 ft 185 kts 171°
2026-05-07 18:56 43.52081 16.37394 4118 ft 183 kts 154°
2026-05-07 18:56 43.50938 16.38196 4738 ft 186 kts 154°
2026-05-07 18:56 43.49772 16.39032 5274 ft 192 kts 154°
2026-05-07 18:56 43.48581 16.39889 5851 ft 195 kts 155°
2026-05-07 18:57 43.47369 16.40754 6435 ft 197 kts 160°
2026-05-07 18:57 43.46026 16.41023 6793 ft 204 kts 193°
2026-05-07 18:57 43.44741 16.40103 6978 ft 225 kts 226°
2026-05-07 18:57 43.43927 16.38113 7304 ft 251 kts 251°
2026-05-07 18:58 43.43452 16.35748 7834 ft 266 kts 255°
2026-05-07 18:58 43.43000 16.33255 8624 ft 272 kts 255°
2026-05-07 18:58 43.42547 16.30723 9523 ft 273 kts 255°
2026-05-07 18:58 43.42090 16.28167 10254 ft 282 kts 255°
2026-05-07 18:59 43.41599 16.25436 10518 ft 306 kts 255°
2026-05-07 18:59 43.41069 16.22505 10895 ft 322 kts 255°
2026-05-07 18:59 43.40522 16.19486 11572 ft 328 kts 255°
2026-05-07 18:59 43.40107 16.16384 12283 ft 334 kts 267°
2026-05-07 19:00 43.40435 16.13205 12999 ft 341 kts 287°
2026-05-07 19:00 43.41612 16.10347 13718 ft 351 kts 308°
2026-05-07 19:00 43.43456 16.08098 14376 ft 357 kts 318°
2026-05-07 19:00 43.45409 16.05972 15057 ft 360 kts 318°
2026-05-07 19:01 43.47384 16.03839 15712 ft 362 kts 318°
2026-05-07 19:01 43.49375 16.01690 16391 ft 365 kts 318°
2026-05-07 19:01 43.51377 15.99519 17056 ft 368 kts 317°
2026-05-07 19:01 43.53391 15.97324 17678 ft 371 kts 317°
2026-05-07 19:02 43.55423 15.95102 18293 ft 375 kts 317°
2026-05-07 19:02 43.57471 15.92856 18832 ft 378 kts 317°
2026-05-07 19:02 43.59530 15.90591 19357 ft 380 kts 317°
2026-05-07 19:02 43.61605 15.88304 19901 ft 383 kts 316°
2026-05-07 19:03 43.63693 15.86003 20420 ft 385 kts 316°
2026-05-07 19:03 43.65792 15.83691 20944 ft 388 kts 316°
2026-05-07 19:03 43.67909 15.81360 21452 ft 390 kts 316°
2026-05-07 19:03 43.70039 15.79020 21965 ft 393 kts 316°
2026-05-07 19:04 43.72184 15.76663 22470 ft 395 kts 316°
2026-05-07 19:04 43.74341 15.74289 22954 ft 398 kts 316°
2026-05-07 19:04 43.76512 15.71894 23440 ft 400 kts 316°
2026-05-07 19:04 43.78664 15.69515 23862 ft 403 kts 316°
2026-05-07 19:05 43.80853 15.67086 24269 ft 404 kts 315°
2026-05-07 19:05 43.83049 15.64650 24689 ft 405 kts 315°
2026-05-07 19:05 43.85253 15.62209 25145 ft 406 kts 315°
2026-05-07 19:05 43.87462 15.59760 25564 ft 407 kts 315°
2026-05-07 19:06 43.89672 15.57305 25983 ft 408 kts 315°
2026-05-07 19:06 43.94101 15.52368 26810 ft 410 kts 315°
2026-05-07 19:06 43.96326 15.49888 27209 ft 411 kts 315°
2026-05-07 19:07 43.98557 15.47401 27623 ft 412 kts 315°
2026-05-07 19:07 44.00791 15.44907 28022 ft 413 kts 315°
2026-05-07 19:07 44.03034 15.42393 28399 ft 415 kts 315°
2026-05-07 19:07 44.05285 15.39873 28777 ft 416 kts 315°
2026-05-07 19:08 44.07541 15.37346 29134 ft 417 kts 315°
2026-05-07 19:08 44.09804 15.34814 29496 ft 418 kts 315°
2026-05-07 19:08 44.12074 15.32272 29834 ft 419 kts 315°
2026-05-07 19:08 44.14347 15.29719 30186 ft 420 kts 315°
2026-05-07 19:09 44.16620 15.27162 30475 ft 422 kts 315°
2026-05-07 19:09 44.18912 15.24577 30702 ft 425 kts 315°
2026-05-07 19:09 44.21210 15.21983 30973 ft 425 kts 314°
2026-05-07 19:09 44.23509 15.19390 31322 ft 425 kts 314°
2026-05-07 19:10 44.25802 15.16799 31667 ft 424 kts 314°
2026-05-07 19:10 44.28089 15.14213 32019 ft 423 kts 314°
2026-05-07 19:10 44.30370 15.11634 32366 ft 422 kts 314°
2026-05-07 19:10 44.32649 15.09057 32717 ft 421 kts 314°
2026-05-07 19:11 44.34920 15.06484 33056 ft 420 kts 314°
2026-05-07 19:11 44.37188 15.03911 33404 ft 419 kts 314°
2026-05-07 19:11 44.39450 15.01336 33774 ft 419 kts 314°
2026-05-07 19:11 44.41704 14.98761 34082 ft 419 kts 314°
2026-05-07 19:12 44.43962 14.96183 34361 ft 419 kts 314°
2026-05-07 19:12 44.46219 14.93612 34635 ft 419 kts 314°
2026-05-07 19:12 44.48478 14.91038 34897 ft 419 kts 314°
2026-05-07 19:12 44.50708 14.88492 35153 ft 419 kts 314°
2026-05-07 19:13 44.52994 14.85881 35396 ft 419 kts 314°
2026-05-07 19:13 44.55242 14.83286 35647 ft 418 kts 313°
2026-05-07 19:13 44.57472 14.80672 35873 ft 418 kts 313°
2026-05-07 19:13 44.59698 14.78039 36022 ft 419 kts 313°
2026-05-07 19:14 44.64107 14.72794 36048 ft 419 kts 313°
2026-05-07 19:14 44.68566 14.67509 36051 ft 420 kts 314°
2026-05-07 19:15 44.73642 14.63202 36046 ft 433 kts 327°
2026-05-07 19:15 44.79102 14.59596 36055 ft 434 kts 327°
2026-05-07 19:16 44.84554 14.55960 36071 ft 433 kts 327°
2026-05-07 19:16 44.90000 14.52314 36061 ft 434 kts 327°
2026-05-07 19:17 44.95453 14.48659 36060 ft 434 kts 327°
2026-05-07 19:17 45.00906 14.45001 36065 ft 434 kts 327°
2026-05-07 19:18 45.06368 14.41329 36090 ft 435 kts 327°
2026-05-07 19:18 45.11835 14.37661 36072 ft 435 kts 327°
2026-05-07 19:19 45.17295 14.33973 36071 ft 434 kts 327°
2026-05-07 19:19 45.22751 14.30284 36066 ft 435 kts 327°
2026-05-07 19:20 45.28214 14.26588 36089 ft 435 kts 327°
2026-05-07 19:20 45.33680 14.22879 36074 ft 436 kts 327°
2026-05-07 19:21 45.39146 14.19153 36068 ft 436 kts 327°
2026-05-07 19:21 45.44578 14.15442 36064 ft 436 kts 327°
2026-05-07 19:22 45.50396 14.12686 36086 ft 450 kts 343°
2026-05-07 19:22 45.56578 14.11199 36075 ft 450 kts 343°
2026-05-07 19:23 45.62754 14.09707 36067 ft 450 kts 343°
2026-05-07 19:23 45.68932 14.08204 36060 ft 450 kts 343°
2026-05-07 19:24 45.75107 14.06691 36067 ft 450 kts 343°
2026-05-07 19:24 45.81288 14.05180 36051 ft 450 kts 343°
2026-05-07 19:25 45.87462 14.03670 36046 ft 450 kts 343°
2026-05-07 19:25 45.93644 14.02155 36043 ft 450 kts 343°
2026-05-07 19:26 45.99818 14.00629 36033 ft 450 kts 343°
2026-05-07 19:26 46.05992 13.99094 36064 ft 450 kts 343°
2026-05-07 19:27 46.12165 13.97562 36070 ft 450 kts 343°
2026-05-07 19:27 46.18338 13.96036 36059 ft 450 kts 343°
2026-05-07 19:28 46.24510 13.94504 36050 ft 450 kts 343°
2026-05-07 19:28 46.30684 13.92967 36047 ft 450 kts 343°
2026-05-07 19:29 46.36813 13.91431 36063 ft 450 kts 343°
2026-05-07 19:29 46.42985 13.89881 36054 ft 450 kts 343°
2026-05-07 19:30 46.49158 13.88334 36056 ft 450 kts 343°
2026-05-07 19:30 46.55334 13.86782 36071 ft 450 kts 344°
2026-05-07 19:31 46.61511 13.85226 36068 ft 450 kts 344°
2026-05-07 19:31 46.67684 13.83661 36060 ft 449 kts 344°
2026-05-07 19:32 46.73853 13.82100 36061 ft 450 kts 344°
2026-05-07 19:32 46.80032 13.80533 36072 ft 450 kts 344°
2026-05-07 19:33 46.86207 13.78954 36073 ft 451 kts 344°
2026-05-07 19:33 46.92399 13.77378 36074 ft 452 kts 344°
2026-05-07 19:34 46.98587 13.75797 36101 ft 452 kts 345°
2026-05-07 19:34 47.04749 13.74215 36090 ft 452 kts 345°
2026-05-07 19:35 47.10980 13.72615 36089 ft 452 kts 345°
2026-05-07 19:35 47.17179 13.71023 36093 ft 452 kts 345°
2026-05-07 19:36 47.23366 13.69387 36106 ft 449 kts 341°
2026-05-07 19:36 47.29035 13.66063 36090 ft 438 kts 324°
2026-05-07 19:37 47.33977 13.60938 36076 ft 434 kts 319°
2026-05-07 19:37 47.38877 13.55720 36079 ft 435 kts 320°
2026-05-07 19:38 47.43791 13.50489 36100 ft 436 kts 320°
2026-05-07 19:38 47.48709 13.45236 36100 ft 437 kts 320°
2026-05-07 19:39 47.53630 13.39954 36091 ft 437 kts 320°
2026-05-07 19:39 47.57744 13.35518 36090 ft 437 kts 320°
2026-05-07 19:40 47.63453 13.29355 36088 ft 437 kts 320°
2026-05-07 19:40 47.68368 13.24050 36101 ft 437 kts 320°
2026-05-07 19:41 47.73285 13.18730 36082 ft 437 kts 320°
2026-05-07 19:41 47.78194 13.13396 36087 ft 437 kts 320°
2026-05-07 19:42 47.82272 13.08957 36081 ft 437 kts 320°
2026-05-07 19:42 47.87177 13.03613 36080 ft 437 kts 320°
2026-05-07 19:43 47.92079 12.98264 36090 ft 437 kts 320°
2026-05-07 19:43 47.96884 12.92741 36076 ft 433 kts 312°
2026-05-07 19:44 48.00423 12.85620 36078 ft 425 kts 294°
2026-05-07 19:44 48.02285 12.77313 36069 ft 422 kts 282°
2026-05-07 19:45 48.03727 12.68807 36083 ft 423 kts 282°
2026-05-07 19:45 48.05159 12.60282 36072 ft 423 kts 282°
2026-05-07 19:46 48.06846 12.51857 36077 ft 424 kts 288°
2026-05-07 19:46 48.08818 12.43529 36071 ft 425 kts 287°
2026-05-07 19:47 48.09802 12.39366 35930 ft 425 kts 288°
2026-05-07 19:47 48.10821 12.35216 35685 ft 424 kts 289°
2026-05-07 19:47 48.11896 12.31106 35445 ft 424 kts 290°
2026-05-07 19:47 48.13003 12.27018 35203 ft 423 kts 290°
2026-05-07 19:48 48.14118 12.22944 34965 ft 423 kts 290°
2026-05-07 19:48 48.15227 12.18870 34730 ft 422 kts 290°
2026-05-07 19:48 48.16326 12.14796 34501 ft 422 kts 290°
2026-05-07 19:48 48.17415 12.10718 34268 ft 421 kts 290°
2026-05-07 19:49 48.18495 12.06647 34032 ft 421 kts 290°
2026-05-07 19:49 48.19570 12.02568 33762 ft 421 kts 290°
2026-05-07 19:49 48.20642 11.98493 33487 ft 421 kts 290°
2026-05-07 19:49 48.21716 11.94402 33217 ft 421 kts 290°
2026-05-07 19:50 48.22789 11.90309 32950 ft 422 kts 290°
2026-05-07 19:50 48.23825 11.86355 32687 ft 423 kts 290°
2026-05-07 19:50 48.24899 11.82248 32423 ft 423 kts 290°
2026-05-07 19:50 48.25972 11.78138 32161 ft 422 kts 290°
2026-05-07 19:51 48.27039 11.74043 31901 ft 421 kts 290°
2026-05-07 19:51 48.28104 11.69959 31636 ft 419 kts 290°
2026-05-07 19:51 48.29151 11.65941 31392 ft 418 kts 290°
2026-05-07 19:51 48.30219 11.61829 31144 ft 416 kts 290°
2026-05-07 19:52 48.31268 11.57788 30880 ft 415 kts 290°
2026-05-07 19:52 48.32310 11.53759 30626 ft 413 kts 290°
2026-05-07 19:52 48.33345 11.49744 30385 ft 412 kts 290°
2026-05-07 19:52 48.34359 11.45810 29885 ft 407 kts 290°
2026-05-07 19:53 48.35385 11.41814 29300 ft 402 kts 290°
2026-05-07 19:53 48.36382 11.37923 28758 ft 396 kts 290°
2026-05-07 19:53 48.37367 11.34082 28218 ft 391 kts 290°
2026-05-07 19:53 48.38341 11.30283 27689 ft 387 kts 290°
2026-05-07 19:54 48.39289 11.26584 27170 ft 382 kts 290°
2026-05-07 19:54 48.40238 11.22870 26665 ft 378 kts 290°
2026-05-07 19:54 48.41172 11.19202 26163 ft 374 kts 290°
2026-05-07 19:54 48.42097 11.15562 25666 ft 370 kts 290°
2026-05-07 19:55 48.43010 11.11967 25202 ft 366 kts 290°
2026-05-07 19:55 48.43913 11.08401 24718 ft 362 kts 290°
2026-05-07 19:55 48.44805 11.04872 24274 ft 358 kts 290°
2026-05-07 19:55 48.45684 11.01379 23830 ft 355 kts 290°
2026-05-07 19:56 48.46552 10.97921 23349 ft 351 kts 290°
2026-05-07 19:56 48.47412 10.94503 22931 ft 346 kts 290°
2026-05-07 19:56 48.48261 10.91136 22525 ft 342 kts 290°
2026-05-07 19:56 48.49100 10.87798 22112 ft 339 kts 290°
2026-05-07 19:57 48.49933 10.84477 21708 ft 338 kts 289°
2026-05-07 19:57 48.50761 10.81172 21300 ft 336 kts 289°
2026-05-07 19:57 48.51585 10.77876 20893 ft 335 kts 289°
2026-05-07 19:57 48.52404 10.74597 20482 ft 333 kts 289°
2026-05-07 19:58 48.53220 10.71336 20051 ft 332 kts 289°
2026-05-07 19:58 48.54030 10.68084 19630 ft 330 kts 289°
2026-05-07 19:58 48.54835 10.64845 19198 ft 329 kts 289°
2026-05-07 19:58 48.55634 10.61619 18766 ft 328 kts 289°
2026-05-07 19:59 48.56431 10.58400 18325 ft 327 kts 289°
2026-05-07 19:59 48.57224 10.55187 17861 ft 325 kts 289°
2026-05-07 19:59 48.58012 10.51995 17443 ft 323 kts 289°
2026-05-07 19:59 48.58797 10.48823 17008 ft 321 kts 289°
2026-05-07 20:00 48.59577 10.45671 16586 ft 320 kts 289°
2026-05-07 20:00 48.60354 10.42528 16154 ft 319 kts 289°
2026-05-07 20:00 48.61124 10.39395 15759 ft 318 kts 289°
2026-05-07 20:00 48.61888 10.36268 15345 ft 317 kts 289°
2026-05-07 20:01 48.62649 10.33141 14929 ft 317 kts 289°
2026-05-07 20:01 48.63410 10.30020 14511 ft 316 kts 289°
2026-05-07 20:01 48.64171 10.26900 14080 ft 317 kts 289°
2026-05-07 20:01 48.64932 10.23777 13636 ft 317 kts 289°
2026-05-07 20:02 48.65691 10.20655 13199 ft 315 kts 289°
2026-05-07 20:02 48.66445 10.17553 12773 ft 314 kts 289°
2026-05-07 20:02 48.67196 10.14467 12338 ft 312 kts 289°
2026-05-07 20:02 48.67944 10.11397 11878 ft 310 kts 289°
2026-05-07 20:03 48.68688 10.08336 11455 ft 309 kts 289°
2026-05-07 20:03 48.69259 10.05217 10996 ft 307 kts 279°
2026-05-07 20:03 48.69636 10.02040 10546 ft 306 kts 279°
2026-05-07 20:03 48.70011 9.98919 10379 ft 296 kts 279°
2026-05-07 20:04 48.70374 9.95910 10253 ft 285 kts 279°
2026-05-07 20:04 48.70724 9.93001 10018 ft 278 kts 278°
2026-05-07 20:04 48.71065 9.90140 9889 ft 275 kts 278°
2026-05-07 20:04 48.71402 9.87272 9525 ft 278 kts 278°
2026-05-07 20:05 48.71735 9.84433 9126 ft 276 kts 278°
2026-05-07 20:05 48.72072 9.81555 8667 ft 277 kts 279°
2026-05-07 20:05 48.72408 9.78711 8322 ft 273 kts 279°
2026-05-07 20:05 48.72741 9.75902 7687 ft 270 kts 279°
2026-05-07 20:06 48.73073 9.73107 7050 ft 269 kts 279°
2026-05-07 20:06 48.73403 9.70307 6625 ft 269 kts 279°
2026-05-07 20:06 48.73731 9.67501 6156 ft 270 kts 279°
2026-05-07 20:06 48.74054 9.64731 5855 ft 264 kts 279°
2026-05-07 20:07 48.74366 9.62046 5699 ft 253 kts 280°
2026-05-07 20:07 48.74664 9.59488 5583 ft 241 kts 280°
2026-05-07 20:07 48.74948 9.57048 5441 ft 230 kts 280°
2026-05-07 20:07 48.75045 9.54690 5312 ft 221 kts 262°
2026-05-07 20:08 48.74675 9.52417 4970 ft 224 kts 255°
2026-05-07 20:08 48.74241 9.50144 4689 ft 224 kts 255°
2026-05-07 20:08 48.73814 9.47879 4394 ft 224 kts 255°
2026-05-07 20:08 48.73390 9.45613 4095 ft 224 kts 255°
2026-05-07 20:09 48.72965 9.43340 3787 ft 225 kts 255°
2026-05-07 20:09 48.72538 9.41060 3486 ft 225 kts 255°
2026-05-07 20:09 48.72112 9.38788 3178 ft 221 kts 255°
2026-05-07 20:10 48.71326 9.34600 2632 ft 192 kts 255°
2026-05-07 20:10 48.70976 9.32739 2402 ft 173 kts 254°
2026-05-07 20:10 48.70663 9.31078 2149 ft 156 kts 254°
2026-05-07 20:10 48.70381 9.29563 1927 ft 148 kts 255°
2026-05-07 20:11 48.70095 9.28063 1730 ft 145 kts 253°
2026-05-07 20:11 48.69812 9.26629 1520 ft 142 kts 255°
2026-05-07 20:11 48.69547 9.25193 1367 ft 142 kts 255°
2026-05-07 20:11 48.69283 9.23762 1205 ft 137 kts 253°
2026-05-07 20:12 48.69088 9.22733 1222 ft 59 kts 254°
2026-05-07 20:12 48.68997 9.22237 1251 ft 45 kts 255°
2026-05-07 20:12 48.68938 9.21836 1245 ft 36 kts 271°
2026-05-07 20:12 48.68974 9.21544 1256 ft 14 kts 284°
2026-05-07 20:13 48.68979 9.21516 1261 ft 0 kts 284°
2026-05-07 20:13 48.68982 9.21497 1259 ft 7 kts 284°
2026-05-07 20:13 48.68990 9.21451 1261 ft 2 kts 284°
2026-05-07 20:13 48.68997 9.21403 1264 ft 17 kts 277°
2026-05-07 20:14 48.68986 9.21258 1267 ft 9 kts 253°
2026-05-07 20:14 48.68960 9.21130 1273 ft 18 kts 254°
2026-05-07 20:14 48.68927 9.20957 1272 ft 16 kts 254°
2026-05-07 20:14 48.68897 9.20799 1273 ft 14 kts 254°
2026-05-07 20:15 48.68873 9.20676 1278 ft 10 kts 253°
2026-05-07 20:15 48.68846 9.20530 1279 ft 23 kts 255°
2026-05-07 20:15 48.68806 9.20316 1284 ft 18 kts 254°
2026-05-07 20:15 48.68777 9.20158 1287 ft 13 kts 254°
2026-05-07 20:16 48.68758 9.20044 1290 ft 9 kts 265°
2026-05-07 20:16 48.68778 9.19975 1293 ft 10 kts 309°
2026-05-07 20:16 48.68823 9.19907 1298 ft 6 kts 321°
2026-05-07 20:16 48.68863 9.19884 1301 ft 4 kts 343°
2026-05-07 20:17 48.68889 9.19810 1304 ft 16 kts 250°
2026-05-07 20:17 48.68860 9.19676 1308 ft 11 kts 256°
2026-05-07 20:17 48.68858 9.19624 1309 ft 2 kts 306°
2026-05-07 20:17 48.68875 9.19604 1311 ft 10 kts 341°
2026-05-07 20:18 48.68887 9.19599 1312 ft 0 kts 340°
2026-05-07 20:18 48.68905 9.19590 1313 ft 0 kts 343°
2026-05-07 20:18 48.68925 9.19581 1315 ft 0 kts 343°